Change the Weather History Date:

Sunday, June 8, 2014

  Actual Average Record
Temperature  
Mean Temperature 67 °F -  
Max Temperature 77 °F 74 °F 93 °F (2001)
Min Temperature 57 °F 48 °F 37 °F (2005)
Cooling Degree Days 2    
Growing Degree Days 17 (Base 50)    
Moisture  
Dew Point 37 °F    
Average Humidity 36    
Maximum Humidity 55    
Minimum Humidity 25    
Precipitation  
Precipitation 0.00 in - - ()
Sea Level Pressure  
Sea Level Pressure 30.05 in    
Wind  
Wind Speed 7 mph (NW)    
Max Wind Speed 25 mph    
Max Gust Speed 34 mph    
Visibility 12 miles    
Events      
Averages and records for this station are not official NWS values.
T = Trace of Precipitation, MM = Missing Value Source: NWS Daily Summary

Daily Weather History Graph

Daily Weather History Graph

Search for Another Location

Airport or City:

Trip Planner

Search our weather history database for the weather conditions in past years. The results will help you decide how hot, cold, wet, or windy it might be!

Date:

Astronomy

Jun. 08, 2014 Rise Set
Actual Time 5:57 AM MDT 8:54 PM MDT
Civil Twilight 5:24 AM MDT 9:27 PM MDT
Nautical Twilight 4:43 AM MDT 10:09 PM MDT
Astronomical Twilight 3:55 AM MDT 10:57 PM MDT
Moon 4:16 PM MDT (6/8) 2:52 AM MDT (6/8)
Length of Visible Light 16h 03m
Length of Day
14h 57m
Waxing Gibbous, 77% of the Moon is Illuminated
Jun 8
Waxing Gibbous
Jun 12
Full
Jun 19
Last Quarter
Jun 27
New
Jul 5
First Quarter

Hourly Weather History & Observations

Time (MDT) Temp. Dew Point Humidity Pressure Visibility Wind Dir Wind Speed Gust Speed Precip Events Conditions
12:15 AM 59.0 °F 41.0 °F 51% 29.95 in 10.0 mi Calm Calm - N/A   Clear
12:35 AM 57.2 °F 41.0 °F 55% 29.95 in 10.0 mi Calm Calm - N/A   Clear
12:55 AM 57.2 °F 41.0 °F 55% 29.95 in 10.0 mi SE 4.6 mph - N/A   Clear
1:15 AM 57.2 °F 39.2 °F 51% 29.95 in 10.0 mi SSE 3.5 mph - N/A   Clear
1:35 AM 60.8 °F 39.2 °F 45% 29.97 in 10.0 mi WSW 3.5 mph - N/A   Clear
1:55 AM 60.8 °F 37.4 °F 42% 29.97 in 10.0 mi ESE 9.2 mph - N/A   Clear
2:15 AM 60.8 °F 37.4 °F 42% 29.97 in 10.0 mi ESE 4.6 mph - N/A   Scattered Clouds
2:35 AM 60.8 °F 41.0 °F 48% 29.98 in 10.0 mi Calm Calm - N/A   Scattered Clouds
2:55 AM 60.8 °F 35.6 °F 39% 29.99 in 10.0 mi SE 8.1 mph - N/A   Scattered Clouds
3:15 AM 62.6 °F 33.8 °F 34% 29.99 in 10.0 mi ESE 5.8 mph - N/A   Mostly Cloudy
3:35 AM 64.4 °F 33.8 °F 32% 30.00 in 10.0 mi Calm Calm - N/A   Partly Cloudy
3:55 AM 66.2 °F 35.6 °F 32% 30.01 in 10.0 mi Calm Calm - N/A   Clear
4:15 AM 66.2 °F 35.6 °F 32% 30.02 in 10.0 mi NNW 10.4 mph 17.3 mph N/A   Mostly Cloudy
4:35 AM 66.2 °F 37.4 °F 35% 30.02 in 10.0 mi NW 25.3 mph 34.5 mph N/A   Scattered Clouds
4:55 AM 66.2 °F 33.8 °F 30% 30.03 in 10.0 mi NW 23.0 mph 29.9 mph N/A   Mostly Cloudy
5:15 AM 66.2 °F 32.0 °F 28% 30.04 in 10.0 mi NNW 12.7 mph - N/A   Mostly Cloudy
5:35 AM 66.2 °F 33.8 °F 30% 30.05 in 10.0 mi NNW 9.2 mph - N/A   Overcast
5:55 AM 66.2 °F 35.6 °F 32% 30.06 in 10.0 mi NW 19.6 mph 25.3 mph N/A   Overcast
6:15 AM 64.4 °F 35.6 °F 34% 30.03 in 10.0 mi East 5.8 mph - N/A   Scattered Clouds
6:35 AM 64.4 °F 33.8 °F 32% 30.04 in 10.0 mi ENE 3.5 mph - N/A   Clear
6:52 AM 62.6 °F 33.8 °F 34% 30.03 in 15.0 mi SSE 8.1 mph - N/A   Scattered Clouds
7:56 AM 66.2 °F 39.2 °F 37% 30.05 in 15.0 mi SSE 4.6 mph - N/A   Partly Cloudy
8:53 AM 68.0 °F 39.2 °F 35% 30.07 in 15.0 mi NW 8.1 mph - N/A   Partly Cloudy
9:49 AM 71.6 °F 35.6 °F 27% 30.07 in 15.0 mi NNW 11.5 mph - N/A   Partly Cloudy
10:58 AM 71.6 °F 37.4 °F 29% 30.08 in 15.0 mi NW 15.0 mph - N/A   Partly Cloudy
11:56 AM 73.4 °F 37.4 °F 27% 30.08 in 15.0 mi NW 11.5 mph - N/A   Partly Cloudy
12:53 PM 73.4 °F 35.6 °F 25% 30.08 in 15.0 mi NW 13.8 mph 25.3 mph N/A   Partly Cloudy
1:55 PM 75.2 °F 39.2 °F 27% 30.07 in 15.0 mi NW 19.6 mph 25.3 mph N/A   Scattered Clouds
2:51 PM 75.2 °F 39.2 °F 27% 30.06 in 15.0 mi WNW 24.2 mph - N/A   Scattered Clouds
3:52 PM 77.0 °F 39.2 °F 26% 30.06 in 15.0 mi WNW 17.3 mph 28.8 mph N/A   Scattered Clouds
4:47 PM 75.2 °F 37.4 °F 25% 30.06 in 15.0 mi WNW 17.3 mph 23.0 mph N/A   Scattered Clouds
5:47 PM 75.2 °F 37.4 °F 25% 30.07 in 15.0 mi WNW 17.3 mph 23.0 mph N/A   Partly Cloudy
6:47 PM 73.4 °F 39.2 °F 29% 30.08 in 15.0 mi WNW 17.3 mph 23.0 mph N/A   Partly Cloudy
7:50 PM 71.6 °F 35.6 °F 27% 30.09 in 15.0 mi WNW 11.5 mph - N/A   Partly Cloudy
8:50 PM 69.8 °F 37.4 °F 31% 30.10 in 15.0 mi WNW 11.5 mph - N/A   Partly Cloudy
9:15 PM 68.0 °F 39.2 °F 35% 30.11 in 10.0 mi NW 12.7 mph - N/A   Clear
9:35 PM 66.2 °F 39.2 °F 37% 30.12 in 10.0 mi WNW 8.1 mph - N/A   Clear
9:55 PM 64.4 °F 37.4 °F 37% 30.12 in 10.0 mi NE 8.1 mph - N/A   Clear
10:15 PM 66.2 °F 37.4 °F 35% 30.13 in 10.0 mi NE 4.6 mph - N/A   Clear
10:35 PM 62.6 °F 35.6 °F 37% 30.14 in 10.0 mi SE 6.9 mph - N/A   Clear
10:55 PM 62.6 °F 39.2 °F 42% 30.14 in 10.0 mi Calm Calm - N/A   Clear
11:15 PM 59.0 °F 41.0 °F 51% 30.14 in 10.0 mi SE 8.1 mph - N/A   Clear
11:35 PM 57.2 °F 41.0 °F 55% 30.14 in 10.0 mi SSE 8.1 mph - N/A   Clear
11:55 PM 57.2 °F 41.0 °F 55% 30.15 in 10.0 mi East 4.6 mph - N/A   Clear